Year,Month,Day,Hour,Minute,Value (Times are PST for windgust in km/hr)
2016,07,20,00,00,8.10
2016,07,20,00,01,9.60
2016,07,20,00,02,11.30
2016,07,20,00,03,11.30
2016,07,20,00,04,11.30
2016,07,20,00,05,12.90
2016,07,20,00,06,11.30
2016,07,20,00,07,9.60
2016,07,20,00,08,9.60
2016,07,20,00,09,8.10
2016,07,20,00,10,9.60
2016,07,20,00,11,8.10
2016,07,20,00,12,8.10
2016,07,20,00,13,8.10
2016,07,20,00,14,9.60
2016,07,20,00,15,9.60
2016,07,20,00,16,9.60
2016,07,20,00,17,11.30
2016,07,20,00,18,9.60
2016,07,20,00,19,11.30
2016,07,20,00,20,11.30
2016,07,20,00,21,9.60
2016,07,20,00,22,8.10
2016,07,20,00,23,9.60
2016,07,20,00,24,8.10
2016,07,20,00,25,8.10
2016,07,20,00,26,11.30
2016,07,20,00,27,8.10
2016,07,20,00,28,8.10
2016,07,20,00,29,8.10
2016,07,20,00,30,6.40
2016,07,20,00,31,8.10
2016,07,20,00,32,6.40
2016,07,20,00,33,4.80
2016,07,20,00,34,1.60
2016,07,20,00,35,1.60
2016,07,20,00,36,1.60
2016,07,20,00,37,1.60
2016,07,20,00,38,4.80
2016,07,20,00,39,6.40
2016,07,20,00,40,3.20
2016,07,20,00,42,1.60
2016,07,20,00,44,1.60
2016,07,20,00,46,1.60
2016,07,20,00,51,4.80
2016,07,20,00,52,1.60
2016,07,20,00,53,1.60
2016,07,20,01,01,4.80
2016,07,20,01,03,1.60
2016,07,20,01,04,1.60
2016,07,20,01,06,3.20
2016,07,20,01,07,3.20
2016,07,20,01,08,1.60
2016,07,20,01,10,1.60
2016,07,20,03,02,1.60
2016,07,20,03,03,4.80
2016,07,20,03,04,4.80
2016,07,20,03,05,4.80
2016,07,20,03,06,4.80
2016,07,20,03,07,1.60
2016,07,20,03,26,1.60
2016,07,20,04,04,1.60
2016,07,20,04,06,4.80
2016,07,20,04,07,6.40
2016,07,20,04,08,3.20
2016,07,20,04,09,3.20
2016,07,20,04,13,1.60
2016,07,20,04,18,3.20
2016,07,20,04,19,4.80
2016,07,20,04,20,6.40
2016,07,20,04,21,4.80
2016,07,20,04,22,4.80
2016,07,20,04,24,1.60
2016,07,20,04,25,3.20
2016,07,20,04,26,1.60
2016,07,20,04,27,1.60
2016,07,20,04,30,1.60
2016,07,20,04,31,1.60
2016,07,20,04,33,1.60
2016,07,20,04,42,1.60
2016,07,20,06,20,1.60
2016,07,20,06,21,1.60
2016,07,20,06,22,1.60
2016,07,20,06,23,1.60
2016,07,20,06,24,1.60
2016,07,20,06,26,1.60
2016,07,20,06,27,1.60
2016,07,20,06,28,1.60
2016,07,20,06,31,1.60
2016,07,20,06,35,3.20
2016,07,20,06,37,1.60
2016,07,20,06,38,3.20
2016,07,20,06,40,1.60
2016,07,20,06,41,6.40
2016,07,20,06,42,6.40
2016,07,20,06,43,3.20
2016,07,20,06,44,1.60
2016,07,20,06,45,3.20
2016,07,20,06,46,4.80
2016,07,20,06,47,4.80
2016,07,20,06,48,3.20
2016,07,20,06,49,1.60
2016,07,20,06,50,1.60
2016,07,20,06,51,3.20
2016,07,20,06,53,1.60
2016,07,20,06,54,1.60
2016,07,20,07,03,1.60
2016,07,20,07,04,1.60
2016,07,20,07,05,3.20
2016,07,20,07,07,1.60
2016,07,20,07,08,6.40
2016,07,20,07,09,4.80
2016,07,20,07,10,4.80
2016,07,20,07,11,1.60
2016,07,20,07,12,6.40
2016,07,20,07,13,4.80
2016,07,20,07,14,3.20
2016,07,20,07,15,3.20
2016,07,20,07,16,1.60
2016,07,20,07,18,1.60
2016,07,20,07,22,1.60
2016,07,20,07,34,1.60
2016,07,20,07,36,1.60
2016,07,20,07,41,1.60
2016,07,20,07,42,3.20
2016,07,20,07,43,1.60
2016,07,20,07,44,1.60
2016,07,20,07,45,1.60
2016,07,20,07,46,3.20
2016,07,20,07,48,1.60
2016,07,20,07,49,4.80
2016,07,20,07,50,3.20
2016,07,20,07,51,1.60
2016,07,20,07,52,4.80
2016,07,20,07,53,4.80
2016,07,20,07,54,1.60
2016,07,20,07,55,4.80
2016,07,20,07,56,4.80
2016,07,20,07,57,3.20
2016,07,20,07,58,1.60
2016,07,20,07,59,4.80
2016,07,20,08,00,3.20
2016,07,20,08,01,1.60
2016,07,20,08,02,1.60
2016,07,20,08,03,1.60
2016,07,20,08,04,1.60
2016,07,20,08,05,1.60
2016,07,20,08,06,1.60
2016,07,20,08,07,1.60
2016,07,20,08,08,1.60
2016,07,20,08,09,3.20
2016,07,20,08,10,3.20
2016,07,20,08,11,4.80
2016,07,20,08,12,4.80
2016,07,20,08,13,4.80
2016,07,20,08,17,4.80
2016,07,20,08,18,3.20
2016,07,20,08,19,3.20
2016,07,20,08,20,3.20
2016,07,20,08,21,4.80
2016,07,20,08,22,3.20
2016,07,20,08,23,1.60
2016,07,20,08,24,4.80
2016,07,20,08,25,3.20
2016,07,20,08,26,3.20
2016,07,20,08,27,4.80
2016,07,20,08,28,3.20
2016,07,20,08,29,4.80
2016,07,20,08,30,4.80
2016,07,20,08,31,1.60
2016,07,20,08,32,6.40
2016,07,20,08,33,3.20
2016,07,20,08,34,6.40
2016,07,20,08,35,1.60
2016,07,20,08,37,3.20
2016,07,20,08,38,3.20
2016,07,20,08,39,6.40
2016,07,20,08,40,8.10
2016,07,20,08,41,4.80
2016,07,20,08,42,3.20
2016,07,20,08,43,4.80
2016,07,20,08,44,1.60
2016,07,20,08,45,1.60
2016,07,20,08,46,1.60
2016,07,20,08,47,1.60
2016,07,20,08,48,1.60
2016,07,20,08,49,1.60
2016,07,20,08,51,1.60
2016,07,20,08,52,3.20
2016,07,20,08,53,4.80
2016,07,20,08,54,4.80
2016,07,20,08,55,4.80
2016,07,20,08,56,4.80
2016,07,20,08,57,4.80
2016,07,20,08,58,1.60
2016,07,20,09,01,1.60
2016,07,20,09,02,3.20
2016,07,20,09,03,1.60
2016,07,20,09,04,8.10
2016,07,20,09,05,11.30
2016,07,20,09,06,6.40
2016,07,20,09,07,9.60
2016,07,20,09,08,8.10
2016,07,20,09,09,6.40
2016,07,20,09,10,8.10
2016,07,20,09,11,11.30
2016,07,20,09,12,4.80
2016,07,20,09,13,8.10
2016,07,20,09,14,11.30
2016,07,20,09,15,8.10
2016,07,20,09,16,8.10
2016,07,20,09,17,6.40
2016,07,20,09,18,8.10
2016,07,20,09,19,8.10
2016,07,20,09,20,1.60
2016,07,20,09,21,9.60
2016,07,20,09,22,8.10
2016,07,20,09,23,8.10
2016,07,20,09,24,4.80
2016,07,20,09,25,3.20
2016,07,20,09,26,8.10
2016,07,20,09,27,6.40
2016,07,20,09,28,1.60
2016,07,20,09,29,4.80
2016,07,20,09,30,4.80
2016,07,20,09,32,4.80
2016,07,20,09,33,3.20
2016,07,20,09,34,4.80
2016,07,20,09,35,6.40
2016,07,20,09,36,1.60
2016,07,20,09,37,4.80
2016,07,20,09,38,4.80
2016,07,20,09,39,1.60
2016,07,20,09,40,1.60
2016,07,20,09,41,8.10
2016,07,20,09,42,9.60
2016,07,20,09,43,9.60
2016,07,20,09,44,14.50
2016,07,20,09,45,8.10
2016,07,20,09,46,9.60
2016,07,20,09,47,11.30
2016,07,20,09,48,11.30
2016,07,20,09,49,14.50
2016,07,20,09,50,14.50
2016,07,20,09,51,11.30
2016,07,20,09,52,9.60
2016,07,20,09,53,11.30
2016,07,20,09,54,6.40
2016,07,20,09,55,1.60
2016,07,20,09,56,11.30
2016,07,20,09,57,9.60
2016,07,20,09,58,6.40
2016,07,20,09,59,6.40
2016,07,20,10,00,8.10
2016,07,20,10,01,8.10
2016,07,20,10,02,6.40
2016,07,20,10,03,8.10
2016,07,20,10,04,9.60
2016,07,20,10,05,4.80
2016,07,20,10,06,11.30
2016,07,20,10,07,9.60
2016,07,20,10,08,9.60
2016,07,20,10,09,9.60
2016,07,20,10,10,11.30
2016,07,20,10,11,14.50
2016,07,20,10,12,9.60
2016,07,20,10,13,11.30
2016,07,20,10,14,9.60
2016,07,20,10,15,14.50
2016,07,20,10,16,9.60
2016,07,20,10,17,12.90
2016,07,20,10,18,9.60
2016,07,20,10,19,3.20
2016,07,20,10,20,8.10
2016,07,20,10,21,3.20
2016,07,20,10,22,3.20
2016,07,20,10,23,1.60
2016,07,20,10,24,6.40
2016,07,20,10,25,8.10
2016,07,20,10,26,11.30
2016,07,20,10,27,8.10
2016,07,20,10,28,16.10
2016,07,20,10,29,16.10
2016,07,20,10,30,6.40
2016,07,20,10,31,4.80
2016,07,20,10,32,8.10
2016,07,20,10,33,9.60
2016,07,20,10,34,14.50
2016,07,20,10,35,14.50
2016,07,20,10,36,6.40
2016,07,20,10,37,9.60
2016,07,20,10,38,8.10
2016,07,20,10,39,11.30
2016,07,20,10,40,8.10
2016,07,20,10,41,9.60
2016,07,20,10,42,3.20
2016,07,20,10,43,3.20
2016,07,20,10,44,6.40
2016,07,20,10,45,11.30
2016,07,20,10,46,11.30
2016,07,20,10,47,3.20
2016,07,20,10,48,6.40
2016,07,20,10,49,6.40
2016,07,20,10,50,8.10
2016,07,20,10,51,8.10
2016,07,20,10,52,9.60
2016,07,20,10,53,19.30
2016,07,20,10,54,14.50
2016,07,20,10,55,14.50
2016,07,20,10,56,14.50
2016,07,20,10,57,14.50
2016,07,20,10,58,4.80
2016,07,20,10,59,11.30
2016,07,20,11,00,8.10
2016,07,20,11,01,8.10
2016,07,20,11,02,9.60
2016,07,20,11,03,9.60
2016,07,20,11,04,16.10
2016,07,20,11,05,12.90
2016,07,20,11,06,6.40
2016,07,20,11,07,8.10
2016,07,20,11,08,8.10
2016,07,20,11,09,8.10
2016,07,20,11,10,9.60
2016,07,20,11,11,9.60
2016,07,20,11,12,12.90
2016,07,20,11,13,11.30
2016,07,20,11,14,4.80
2016,07,20,11,15,4.80
2016,07,20,11,16,6.40
2016,07,20,11,17,9.60
2016,07,20,11,18,11.30
2016,07,20,11,19,8.10
2016,07,20,11,20,8.10
2016,07,20,11,21,8.10
2016,07,20,11,22,9.60
2016,07,20,11,23,9.60
2016,07,20,11,24,8.10
2016,07,20,11,25,14.50
2016,07,20,11,26,12.90
2016,07,20,11,27,17.70
2016,07,20,11,28,17.70
2016,07,20,11,29,17.70
2016,07,20,11,30,19.30
2016,07,20,11,31,17.70
2016,07,20,11,32,11.30
2016,07,20,11,33,9.60
2016,07,20,11,34,8.10
2016,07,20,11,35,11.30
2016,07,20,11,36,11.30
2016,07,20,11,37,9.60
2016,07,20,11,38,6.40
2016,07,20,11,39,16.10
2016,07,20,11,40,14.50
2016,07,20,11,41,11.30
2016,07,20,11,42,9.60
2016,07,20,11,43,12.90
2016,07,20,11,44,9.60
2016,07,20,11,45,16.10
2016,07,20,11,46,16.10
2016,07,20,11,47,16.10
2016,07,20,11,48,11.30
2016,07,20,11,49,14.50
2016,07,20,11,50,9.60
2016,07,20,11,51,14.50
2016,07,20,11,52,9.60
2016,07,20,11,53,9.60
2016,07,20,11,54,3.20
2016,07,20,11,55,6.40
2016,07,20,11,56,12.90
2016,07,20,11,57,16.10
2016,07,20,11,58,17.70
2016,07,20,11,59,19.30
2016,07,20,12,00,16.10
2016,07,20,12,01,17.70
2016,07,20,12,02,17.70
2016,07,20,12,03,14.50
2016,07,20,12,04,11.30
2016,07,20,12,05,17.70
2016,07,20,12,06,19.30
2016,07,20,12,07,16.10
2016,07,20,12,08,14.50
2016,07,20,12,09,16.10
2016,07,20,12,10,17.70
2016,07,20,12,11,16.10
2016,07,20,12,12,12.90
2016,07,20,12,13,11.30
2016,07,20,12,14,14.50
2016,07,20,12,15,16.10
2016,07,20,12,16,16.10
2016,07,20,12,17,11.30
2016,07,20,12,18,16.10
2016,07,20,12,19,16.10
2016,07,20,12,20,14.50
2016,07,20,12,21,14.50
2016,07,20,12,22,14.50
2016,07,20,12,23,17.70
2016,07,20,12,24,14.50
2016,07,20,12,25,11.30
2016,07,20,12,26,12.90
2016,07,20,12,27,14.50
2016,07,20,12,28,11.30
2016,07,20,12,29,16.10
2016,07,20,12,30,11.30
2016,07,20,12,31,17.70
2016,07,20,12,32,19.30
2016,07,20,12,33,16.10
2016,07,20,12,34,16.10
2016,07,20,12,35,14.50
2016,07,20,12,36,12.90
2016,07,20,12,37,11.30
2016,07,20,12,38,17.70
2016,07,20,12,39,14.50
2016,07,20,12,40,17.70
2016,07,20,12,41,14.50
2016,07,20,12,42,14.50
2016,07,20,12,43,16.10
2016,07,20,12,44,16.10
2016,07,20,12,45,11.30
2016,07,20,12,46,11.30
2016,07,20,12,47,14.50
2016,07,20,12,48,11.30
2016,07,20,12,49,9.60
2016,07,20,12,50,14.50
2016,07,20,12,51,16.10
2016,07,20,12,52,8.10
2016,07,20,12,53,14.50
2016,07,20,12,54,11.30
2016,07,20,12,55,9.60
2016,07,20,12,56,8.10
2016,07,20,12,57,9.60
2016,07,20,12,58,6.40
2016,07,20,12,59,9.60
2016,07,20,13,00,6.40
2016,07,20,13,01,1.60
2016,07,20,13,02,11.30
2016,07,20,13,03,8.10
2016,07,20,13,04,9.60
2016,07,20,13,05,11.30
2016,07,20,13,06,8.10
2016,07,20,13,07,8.10
2016,07,20,13,08,3.20
2016,07,20,13,09,16.10
2016,07,20,13,10,11.30
2016,07,20,13,11,14.50
2016,07,20,13,12,16.10
2016,07,20,13,13,16.10
2016,07,20,13,14,14.50
2016,07,20,13,15,14.50
2016,07,20,13,16,16.10
2016,07,20,13,17,16.10
2016,07,20,13,18,16.10
2016,07,20,13,19,14.50
2016,07,20,13,20,16.10
2016,07,20,13,21,11.30
2016,07,20,13,22,9.60
2016,07,20,13,23,14.50
2016,07,20,13,24,11.30
2016,07,20,13,25,11.30
2016,07,20,13,26,16.10
2016,07,20,13,27,14.50
2016,07,20,13,28,16.10
2016,07,20,13,29,14.50
2016,07,20,13,30,14.50
2016,07,20,13,31,12.90
2016,07,20,13,32,9.60
2016,07,20,13,33,14.50
2016,07,20,13,34,16.10
2016,07,20,13,35,16.10
2016,07,20,13,36,17.70
2016,07,20,13,37,16.10
2016,07,20,13,38,17.70
2016,07,20,13,39,14.50
2016,07,20,13,40,14.50
2016,07,20,13,41,14.50
2016,07,20,13,42,17.70
2016,07,20,13,43,17.70
2016,07,20,13,44,14.50
2016,07,20,13,45,14.50
2016,07,20,13,46,12.90
2016,07,20,13,47,14.50
2016,07,20,13,48,11.30
2016,07,20,13,49,14.50
2016,07,20,13,50,14.50
2016,07,20,13,51,14.50
2016,07,20,13,52,14.50
2016,07,20,13,53,17.70
2016,07,20,13,54,14.50
2016,07,20,13,55,6.40
2016,07,20,13,56,8.10
2016,07,20,13,57,6.40
2016,07,20,13,58,6.40
2016,07,20,13,59,4.80
2016,07,20,14,00,8.10
2016,07,20,14,01,9.60
2016,07,20,14,02,8.10
2016,07,20,14,03,9.60
2016,07,20,14,04,6.40
2016,07,20,14,05,9.60
2016,07,20,14,06,9.60
2016,07,20,14,07,6.40
2016,07,20,14,08,8.10
2016,07,20,14,09,9.60
2016,07,20,14,10,8.10
2016,07,20,14,11,6.40
2016,07,20,14,12,14.50
2016,07,20,14,13,9.60
2016,07,20,14,14,9.60
2016,07,20,14,15,8.10
2016,07,20,14,16,4.80
2016,07,20,14,17,8.10
2016,07,20,14,18,9.60
2016,07,20,14,19,8.10
2016,07,20,14,20,11.30
2016,07,20,14,21,8.10
2016,07,20,14,22,11.30
2016,07,20,14,23,11.30
2016,07,20,14,24,8.10
2016,07,20,14,25,8.10
2016,07,20,14,26,6.40
2016,07,20,14,27,4.80
2016,07,20,14,28,9.60
2016,07,20,14,29,6.40
2016,07,20,14,30,8.10
2016,07,20,14,31,6.40
2016,07,20,14,32,6.40
2016,07,20,14,33,9.60
2016,07,20,14,34,14.50
2016,07,20,14,35,9.60
2016,07,20,14,36,9.60
2016,07,20,14,37,6.40
2016,07,20,14,38,4.80
2016,07,20,14,39,11.30
2016,07,20,14,40,9.60
2016,07,20,14,41,9.60
2016,07,20,14,42,6.40
2016,07,20,14,43,9.60
2016,07,20,14,44,14.50
2016,07,20,14,45,11.30
2016,07,20,14,46,12.90
2016,07,20,14,47,11.30
2016,07,20,14,48,8.10
2016,07,20,14,49,12.90
2016,07,20,14,50,8.10
2016,07,20,14,51,11.30
2016,07,20,14,52,11.30
2016,07,20,14,53,8.10
2016,07,20,14,54,11.30
2016,07,20,14,55,16.10
2016,07,20,14,56,9.60
2016,07,20,14,57,9.60
2016,07,20,14,58,9.60
2016,07,20,14,59,4.80
2016,07,20,15,00,3.20
2016,07,20,15,01,11.30
2016,07,20,15,02,9.60
2016,07,20,15,03,8.10
2016,07,20,15,04,14.50
2016,07,20,15,05,12.90
2016,07,20,15,06,11.30
2016,07,20,15,07,9.60
2016,07,20,15,08,8.10
2016,07,20,15,09,9.60
2016,07,20,15,10,8.10
2016,07,20,15,11,8.10
2016,07,20,15,12,9.60
2016,07,20,15,13,14.50
2016,07,20,15,14,6.40
2016,07,20,15,15,9.60
2016,07,20,15,16,3.20
2016,07,20,15,17,9.60
2016,07,20,15,18,11.30
2016,07,20,15,19,9.60
2016,07,20,15,20,11.30
2016,07,20,15,21,8.10
2016,07,20,15,22,6.40
2016,07,20,15,23,6.40
2016,07,20,15,24,8.10
2016,07,20,15,25,14.50
2016,07,20,15,26,11.30
2016,07,20,15,27,9.60
2016,07,20,15,28,4.80
2016,07,20,15,29,4.80
2016,07,20,15,30,8.10
2016,07,20,15,31,6.40
2016,07,20,15,32,4.80
2016,07,20,15,33,9.60
2016,07,20,15,34,6.40
2016,07,20,15,35,8.10
2016,07,20,15,36,19.30
2016,07,20,15,37,19.30
2016,07,20,15,38,11.30
2016,07,20,15,39,4.80
2016,07,20,15,40,8.10
2016,07,20,15,41,14.50
2016,07,20,15,42,6.40
2016,07,20,15,43,6.40
2016,07,20,15,44,4.80
2016,07,20,15,45,3.20
2016,07,20,15,46,1.60
2016,07,20,15,47,14.50
2016,07,20,15,48,17.70
2016,07,20,15,49,20.90
2016,07,20,15,50,16.10
2016,07,20,15,51,11.30
2016,07,20,15,52,11.30
2016,07,20,15,53,11.30
2016,07,20,15,54,11.30
2016,07,20,15,55,11.30
2016,07,20,15,56,11.30
2016,07,20,15,57,11.30
2016,07,20,15,58,11.30
2016,07,20,15,59,11.30
2016,07,20,17,07,12.90
2016,07,20,17,08,11.30
2016,07,20,17,09,8.10
2016,07,20,17,10,8.10
2016,07,20,17,11,8.10
2016,07,20,17,12,6.40
2016,07,20,17,13,4.80
2016,07,20,17,14,20.90
2016,07,20,17,15,20.90
2016,07,20,17,16,17.70
2016,07,20,17,17,20.90
2016,07,20,17,18,16.10
2016,07,20,17,19,6.40
2016,07,20,17,20,16.10
2016,07,20,17,21,6.40
2016,07,20,17,22,8.10
2016,07,20,17,23,1.60
2016,07,20,17,24,9.60
2016,07,20,17,25,16.10
2016,07,20,17,26,8.10
2016,07,20,17,27,8.10
2016,07,20,17,28,11.30
2016,07,20,17,29,17.70
2016,07,20,17,30,9.60
2016,07,20,17,31,8.10
2016,07,20,17,32,3.20
2016,07,20,17,33,6.40
2016,07,20,17,34,3.20
2016,07,20,17,35,8.10
2016,07,20,17,36,11.30
2016,07,20,17,37,4.80
2016,07,20,17,38,11.30
2016,07,20,17,39,11.30
2016,07,20,17,40,9.60
2016,07,20,17,41,14.50
2016,07,20,17,42,19.30
2016,07,20,17,43,9.60
2016,07,20,17,44,16.10
2016,07,20,17,45,14.50
2016,07,20,17,46,19.30
2016,07,20,17,47,20.90
2016,07,20,17,48,16.10
2016,07,20,17,49,11.30
2016,07,20,17,50,17.70
2016,07,20,17,51,16.10
2016,07,20,17,52,11.30
2016,07,20,17,53,9.60
2016,07,20,17,54,14.50
2016,07,20,17,55,11.30
2016,07,20,17,56,16.10
2016,07,20,17,57,20.90
2016,07,20,17,58,19.30
2016,07,20,17,59,9.60
2016,07,20,18,00,17.70
2016,07,20,18,01,19.30
2016,07,20,18,02,19.30
2016,07,20,18,03,11.30
2016,07,20,18,04,16.10
2016,07,20,18,05,17.70
2016,07,20,18,06,17.70
2016,07,20,18,07,9.60
2016,07,20,18,08,12.90
2016,07,20,18,09,9.60
2016,07,20,18,10,16.10
2016,07,20,18,11,14.50
2016,07,20,18,12,16.10
2016,07,20,18,13,9.60
2016,07,20,18,14,11.30
2016,07,20,18,15,14.50
2016,07,20,18,16,14.50
2016,07,20,18,17,20.90
2016,07,20,18,18,16.10
2016,07,20,18,19,9.60
2016,07,20,18,20,9.60
2016,07,20,18,21,20.90
2016,07,20,18,22,19.30
2016,07,20,18,23,17.70
2016,07,20,18,24,17.70
2016,07,20,18,25,17.70
2016,07,20,18,26,17.70
2016,07,20,18,27,12.90
2016,07,20,18,28,24.20
2016,07,20,18,29,16.10
2016,07,20,18,30,22.50
2016,07,20,18,31,20.90
2016,07,20,18,32,17.70
2016,07,20,18,33,17.70
2016,07,20,18,34,20.90
2016,07,20,18,35,19.30
2016,07,20,18,36,11.30
2016,07,20,18,37,24.20
2016,07,20,18,38,17.70
2016,07,20,18,39,19.30
2016,07,20,18,40,25.70
2016,07,20,18,41,24.20
2016,07,20,18,42,16.10
2016,07,20,18,43,11.30
2016,07,20,18,44,17.70
2016,07,20,18,45,19.30
2016,07,20,18,46,19.30
2016,07,20,18,47,22.50
2016,07,20,18,48,16.10
2016,07,20,18,49,12.90
2016,07,20,18,50,11.30
2016,07,20,18,51,11.30
2016,07,20,18,52,14.50
2016,07,20,18,53,17.70
2016,07,20,18,54,16.10
2016,07,20,18,55,14.50
2016,07,20,18,56,9.60
2016,07,20,18,57,9.60
2016,07,20,18,58,8.10
2016,07,20,18,59,6.40
2016,07,20,19,00,8.10
2016,07,20,19,01,11.30
2016,07,20,19,02,11.30
2016,07,20,19,03,14.50
2016,07,20,19,04,14.50
2016,07,20,19,05,16.10
2016,07,20,19,06,14.50
2016,07,20,19,07,17.70
2016,07,20,19,08,22.50
2016,07,20,19,09,20.90
2016,07,20,19,10,16.10
2016,07,20,19,11,16.10
2016,07,20,19,12,16.10
2016,07,20,19,13,16.10
2016,07,20,19,14,6.40
2016,07,20,19,15,14.50
2016,07,20,19,16,8.10
2016,07,20,19,17,12.90
2016,07,20,19,18,8.10
2016,07,20,19,19,8.10
2016,07,20,19,20,6.40
2016,07,20,19,21,8.10
2016,07,20,19,22,8.10
2016,07,20,19,23,8.10
2016,07,20,19,24,16.10
2016,07,20,19,25,11.30
2016,07,20,19,26,8.10
2016,07,20,19,27,11.30
2016,07,20,19,28,14.50
2016,07,20,19,29,16.10
2016,07,20,19,30,11.30
2016,07,20,19,31,19.30
2016,07,20,19,32,17.70
2016,07,20,19,33,16.10
2016,07,20,19,34,12.90
2016,07,20,19,35,8.10
2016,07,20,19,36,6.40
2016,07,20,19,37,16.10
2016,07,20,19,38,16.10
2016,07,20,19,39,11.30
2016,07,20,19,40,9.60
2016,07,20,19,41,11.30
2016,07,20,19,42,9.60
2016,07,20,19,43,14.50
2016,07,20,19,44,14.50
2016,07,20,19,45,16.10
2016,07,20,19,46,8.10
2016,07,20,19,47,9.60
2016,07,20,19,48,9.60
2016,07,20,19,49,9.60
2016,07,20,19,50,14.50
2016,07,20,19,51,8.10
2016,07,20,19,52,9.60
2016,07,20,19,53,11.30
2016,07,20,19,54,11.30
2016,07,20,19,55,9.60
2016,07,20,19,56,16.10
2016,07,20,19,57,12.90
2016,07,20,19,58,12.90
2016,07,20,19,59,14.50
2016,07,20,20,00,14.50
2016,07,20,20,01,9.60
2016,07,20,20,02,16.10
2016,07,20,20,03,11.30
2016,07,20,20,04,14.50
2016,07,20,20,05,14.50
2016,07,20,20,06,9.60
2016,07,20,20,07,9.60
2016,07,20,20,08,11.30
2016,07,20,20,09,11.30
2016,07,20,20,10,14.50
2016,07,20,20,11,19.30
2016,07,20,20,12,12.90
2016,07,20,20,13,9.60
2016,07,20,20,14,9.60
2016,07,20,20,15,11.30
2016,07,20,20,16,11.30
2016,07,20,20,17,14.50
2016,07,20,20,18,9.60
2016,07,20,20,19,11.30
2016,07,20,20,20,6.40
2016,07,20,20,21,6.40
2016,07,20,20,22,11.30
2016,07,20,20,23,11.30
2016,07,20,20,24,6.40
2016,07,20,20,25,4.80
2016,07,20,20,26,3.20
2016,07,20,20,27,9.60
2016,07,20,20,28,6.40
2016,07,20,20,29,8.10
2016,07,20,20,30,6.40
2016,07,20,20,31,8.10
2016,07,20,20,32,6.40
2016,07,20,20,33,8.10
2016,07,20,20,34,8.10
2016,07,20,20,35,8.10
2016,07,20,20,36,8.10
2016,07,20,20,37,8.10
2016,07,20,20,38,6.40
2016,07,20,20,39,8.10
2016,07,20,20,40,6.40
2016,07,20,20,41,8.10
2016,07,20,20,42,6.40
2016,07,20,20,43,6.40
2016,07,20,20,44,4.80
2016,07,20,20,45,6.40
2016,07,20,20,46,4.80
2016,07,20,20,47,6.40
2016,07,20,20,48,6.40
2016,07,20,20,49,8.10
2016,07,20,20,50,6.40
2016,07,20,20,51,4.80
2016,07,20,20,52,1.60
2016,07,20,20,54,6.40
2016,07,20,20,55,9.60
2016,07,20,20,56,4.80
2016,07,20,20,57,4.80
2016,07,20,20,58,4.80
2016,07,20,20,59,4.80
2016,07,20,21,00,1.60
2016,07,20,21,02,1.60
2016,07,20,21,03,1.60
2016,07,20,21,04,1.60
2016,07,20,21,05,4.80
2016,07,20,21,06,4.80
2016,07,20,21,07,3.20
2016,07,20,21,08,3.20
2016,07,20,21,09,3.20
2016,07,20,21,11,1.60
2016,07,20,21,12,3.20
2016,07,20,21,14,3.20
2016,07,20,21,15,3.20
2016,07,20,21,16,4.80
2016,07,20,21,26,1.60
2016,07,20,21,35,3.20
2016,07,20,21,36,1.60
2016,07,20,21,37,1.60
2016,07,20,21,42,1.60
2016,07,20,21,49,1.60
2016,07,20,21,50,1.60
